IRIDIUM 33 DEB

Satellite information

Favourite Embed

Satellite Type and Status

DEBRISIN ORBIT

Key statistics

Satellite IRIDIUM 33 DEB at a glance.

Uptime

10266

Days in orbit

Revolutions

≈ 15.0

Per day

Orbit

LEO

Low Earth Orbit

Inclination

86.2

Latest

Satellite identification and parameters

Extended collection of information and parameters for IRIDIUM 33 DEB.

Object identification

Identified? True

Debris? True

Object name: IRIDIUM 33 DEB

International designator: 1997-051QU

Object number (NORAD): 35622

Object ID (CCSDS): 35622

Country: UNITED STATES OF AMERICA (US)

Current information (Y/N): Y

RCS size: SMALL

Orbital parameters

Period: 96.269 minutes

Inclination: 86.203 deg

SMA: 6958.018 km

Apoapsis: 592.082 km

Periapsis: 567.684 km

RAAN: 289.512 deg

Eccentricy: 0.00175328

Argument of periapsis: 109.8108 deg

Mean anomaly: 66.7075 deg

Mean motion: 14.95803109 rev/day

Mean motion (dot): 0.00082532 rev/day2

B* drag term: 0.0072976876 1/REarth

Two-line elements (TLE)

Creation date: Oct. 21, 2025, 3:26 a.m.

Reference frame: TEME

Reference center: EARTH

Epoch: Oct. 20, 2025, 5:56 p.m. UTC

TLE line 0: 0 IRIDIUM 33 DEB

TLE line 1: 1 35622U 97051QU 25293.74764083 .00082532 00000-0 72977-2 0 9994

TLE line 2: 2 35622 86.2030 289.5120 0017533 109.8108 66.7075 14.95803109865653

Live tracking on map

Real-time ground track for satellite IRIDIUM 33 DEB.

In-orbit conjunctions

A list of the most updated potential collisions computed for object IRIDIUM 33 DEB.

Target Orbit TCA Probability of collision Miss distance Type
PSLV R/B SSO 2025-02-19 08:23:58 0.001491069 79.0 (m) ROCKET BODY
SL-14 R/B LEO 2024-12-07 10:40:58 0.0001004622 660.0 (m) ROCKET BODY
CZ-6A DEB LEO 2024-10-07 10:31:40 0.000353396 684.0 (m) DEBRIS

Associated space launch

Iridium provides global mobile telecommunications services using a constellation of 66 low earth orbit satellites in a 86.4° inclined orbit. Although 77 satellites were originally envisioned for the system and spawned the name based on the 77th element in the periodic table, the system has been scaled back. Motorola's Satellite Communications Group designed and manufactured the Iridium satellites with Lockheed Martin providing the LM-700A spacecraft buses.

IRIDIUM 33 DEB was lifted into orbit during the mission ‘Proton-K/17S40 | Iridium 27 to 33’, on board a Proton-K/17S40 space rocket.

The launch took place on Sept. 14, 1997, 1:36 a.m. from 81/23 (81L).

For more information about the launch, click the button.

Launch to space Proton-K/17S40 | Iridium 27 to 33
Proton-K/17S40 | Iridium 27 to 33

Agency: N/A

Status: Launch Successful

Launch date: Sept. 14, 1997, 1:36 a.m. UTC

Rocket: Proton-K/17S40

Launch pad: 81/23 (81L)

Location: Baikonur Cosmodrome, Republic of Kazakhstan

...

Latest news about this satellite

There are no fresh news available about this satellite. Check back as we update our databases every day.


Newsletter sign-up

Weekly statistics, charts and insights to help you stay on top of the space industry.